| time (UTC) | temp F | wind direction | speed knots | gust knots | rain 1hr in | rain 24hr in | rain mn in | humidity % | barometer mb |
| 20260503181042 | 74 | 190 | 4.3 | 7.8 | 0.00 | 0.00 | 0.00 | 44 | 1014.4 |
| 20260503175017 | 72 | 130 | 2.6 | 7.0 | 0.00 | 0.00 | 0.00 | 45 | 1014.5 |
| 20260503174017 | 72 | 165 | 1.7 | 4.3 | 0.00 | 0.00 | 0.00 | 41 | 1014.6 |
| 20260503173017 | 71 | 158 | 2.6 | 4.3 | 0.00 | 0.00 | 0.00 | 43 | 1014.6 |
| 20260503172038 | 71 | 138 | 1.7 | 5.2 | 0.00 | 0.00 | 0.00 | 45 | 1014.8 |
| 20260503171018 | 69 | 186 | 0.0 | 4.3 | 0.00 | 0.00 | 0.00 | 52 | 1014.9 |
| 20260503131022 | 55 | 0.0 | 0.0 | 0.00 | 0.00 | 0.00 | 71 | 1015.2 | |
| 20260503081027 | 61 | 239 | 0.9 | 1.7 | 0.00 | 0.00 | 0.00 | 62 | 1014.9 |
| 20260503072028 | 62 | 278 | 0.0 | 0.9 | 0.00 | 0.00 | 0.00 | 57 | 1014.8 |
| 20260503071029 | 63 | 272 | 0.0 | 1.7 | 0.00 | 0.00 | 0.00 | 56 | 1014.7 |
| 20260503055029 | 65 | 324 | 0.0 | 1.7 | 0.00 | 0.00 | 0.00 | 53 | 1014.3 |
| 20260503054030 | 65 | 336 | 0.9 | 3.5 | 0.00 | 0.00 | 0.00 | 54 | 1014.2 |
| 20260503053050 | 65 | 318 | 0.9 | 2.6 | 0.00 | 0.00 | 0.00 | 59 | 1014.2 |
| 20260503052030 | 64 | 315 | 0.9 | 2.6 | 0.00 | 0.00 | 0.00 | 59 | 1014.2 |
| 20260503051030 | 65 | 267 | 0.0 | 1.7 | 0.00 | 0.00 | 0.00 | 59 | 1014.2 |
| 20260503050016 | 65 | 205 | 0.9 | 1.7 | 0.00 | 0.00 | 0.00 | 60 | 1014.2 |
| 20260503045016 | 66 | 308 | 0.0 | 0.9 | 0.00 | 0.00 | 0.00 | 58 | 1014.0 |
| 20260503044016 | 66 | 336 | 0.9 | 3.5 | 0.00 | 0.00 | 0.00 | 56 | 1014.0 |
| 20260503043016 | 66 | 234 | 0.0 | 1.7 | 0.00 | 0.00 | 0.00 | 59 | 1014.0 |
| 20260503042017 | 67 | 300 | 1.7 | 2.6 | 0.00 | 0.00 | 0.00 | 57 | 1013.9 |
| 20260503041017 | 67 | 0.0 | 0.0 | 0.00 | 0.00 | 0.00 | 56 | 1013.9 | |
| 20260503040017 | 68 | 0.0 | 0.0 | 0.00 | 0.00 | 0.00 | 55 | 1013.7 | |
| 20260503035017 | 68 | 289 | 0.0 | 1.7 | 0.00 | 0.00 | 0.00 | 54 | 1013.6 |
| 20260503034017 | 69 | 0.0 | 0.0 | 0.00 | 0.00 | 0.00 | 53 | 1013.4 | |
| 20260503033018 | 70 | 348 | 0.9 | 2.6 | 0.00 | 0.00 | 0.00 | 53 | 1013.3 |
| 20260503032017 | 71 | 300 | 0.0 | 1.7 | 0.00 | 0.00 | 0.00 | 51 | 1013.2 |
| 20260503031018 | 71 | 294 | 0.9 | 3.5 | 0.00 | 0.00 | 0.00 | 49 | 1013.2 |
| 20260503030018 | 72 | 272 | 0.0 | 2.6 | 0.00 | 0.00 | 0.00 | 48 | 1013.2 |
| 20260503025018 | 73 | 0.0 | 0.0 | 0.00 | 0.00 | 0.00 | 47 | 1013.1 | |
| 20260503024018 | 74 | 0.0 | 0.0 | 0.00 | 0.00 | 0.00 | 45 | 1013.1 | |
| 20260503023016 | 74 | 201 | 0.0 | 3.5 | 0.00 | 0.00 | 0.00 | 43 | 1013.1 |
| 20260503022016 | 75 | 235 | 0.9 | 3.5 | 0.00 | 0.00 | 0.00 | 42 | 1013.1 |
| 20260503021016 | 75 | 206 | 0.9 | 4.3 | 0.00 | 0.00 | 0.00 | 42 | 1013.2 |
| 20260503020037 | 75 | 224 | 2.6 | 6.1 | 0.00 | 0.00 | 0.00 | 41 | 1013.2 |
| 20260503015016 | 76 | 218 | 1.7 | 7.8 | 0.00 | 0.00 | 0.00 | 41 | 1013.3 |
| 20260503014017 | 76 | 205 | 1.7 | 3.5 | 0.00 | 0.00 | 0.00 | 41 | 1013.4 |
| 20260503013017 | 77 | 230 | 1.7 | 6.1 | 0.00 | 0.00 | 0.00 | 39 | 1013.5 |
| 20260503012017 | 77 | 225 | 1.7 | 4.3 | 0.00 | 0.00 | 0.00 | 39 | 1013.5 |
| 20260503011018 | 78 | 223 | 2.6 | 6.1 | 0.00 | 0.00 | 0.00 | 38 | 1013.6 |
| 20260503010058 | 78 | 228 | 2.6 | 7.0 | 0.00 | 0.00 | 0.00 | 37 | 1013.6 |
| 20260503005018 | 78 | 227 | 4.3 | 10.4 | 0.00 | 0.00 | 0.00 | 38 | 1013.7 |
| 20260503004017 | 78 | 218 | 3.5 | 7.8 | 0.00 | 0.00 | 0.00 | 39 | 1013.7 |
| 20260503003018 | 79 | 213 | 2.6 | 8.7 | 0.00 | 0.00 | 0.00 | 39 | 1013.8 |
| 20260503002018 | 79 | 232 | 3.5 | 7.8 | 0.00 | 0.00 | 0.00 | 38 | 1013.9 |
| 20260503001018 | 79 | 225 | 4.3 | 10.4 | 0.00 | 0.00 | 0.00 | 37 | 1013.9 |
| 20260503000016 | 79 | 207 | 3.5 | 7.0 | 0.00 | 0.00 | 0.00 | 37 | 1014.0 |
| 20260502235016 | 79 | 190 | 2.6 | 6.1 | 0.00 | 0.00 | 0.00 | 38 | 1014.1 |
| 20260502234016 | 78 | 214 | 4.3 | 9.6 | 0.00 | 0.00 | 0.00 | 38 | 1014.2 |
| 20260502233016 | 79 | 209 | 2.6 | 7.8 | 0.00 | 0.00 | 0.00 | 38 | 1014.3 |
| 20260502232016 | 78 | 236 | 2.6 | 7.0 | 0.00 | 0.00 | 0.00 | 37 | 1014.4 |
| 20260502231017 | 78 | 225 | 2.6 | 7.0 | 0.00 | 0.00 | 0.00 | 38 | 1014.5 |
| 20260502230017 | 78 | 233 | 3.5 | 10.4 | 0.00 | 0.00 | 0.00 | 37 | 1014.6 |
| 20260502225017 | 78 | 223 | 3.5 | 8.7 | 0.00 | 0.00 | 0.00 | 40 | 1014.8 |
| 20260502224018 | 78 | 200 | 2.6 | 7.8 | 0.00 | 0.00 | 0.00 | 40 | 1014.9 |
| 20260502223017 | 77 | 228 | 2.6 | 7.0 | 0.00 | 0.00 | 0.00 | 39 | 1015.0 |
| 20260502222017 | 77 | 222 | 3.5 | 7.8 | 0.00 | 0.00 | 0.00 | 38 | 1015.1 |
| 20260502221018 | 77 | 217 | 3.5 | 8.7 | 0.00 | 0.00 | 0.00 | 40 | 1015.3 |
| 20260502220023 | 77 | 282 | 1.7 | 4.3 | 0.00 | 0.00 | 0.00 | 41 | 1015.4 |
| 20260502215059 | 77 | 225 | 2.6 | 7.0 | 0.00 | 0.00 | 0.00 | 42 | 1015.5 |
| 20260502214018 | 78 | 261 | 1.7 | 5.2 | 0.00 | 0.00 | 0.00 | 41 | 1015.7 |
| 20260502213017 | 77 | 200 | 1.7 | 7.8 | 0.00 | 0.00 | 0.00 | 42 | 1015.8 |
| 20260502212019 | 76 | 209 | 4.3 | 8.7 | 0.00 | 0.00 | 0.00 | 45 | 1015.8 |
| 20260502211019 | 76 | 211 | 4.3 | 7.8 | 0.00 | 0.00 | 0.00 | 47 | 1015.8 |
| 20260502210015 | 76 | 204 | 4.3 | 7.8 | 0.00 | 0.00 | 0.00 | 47 | 1015.9 |
| 20260502205016 | 75 | 189 | 3.5 | 7.8 | 0.00 | 0.00 | 0.00 | 50 | 1016.0 |
| 20260502204016 | 75 | 194 | 3.5 | 7.0 | 0.00 | 0.00 | 0.00 | 49 | 1016.1 |
| 20260502203016 | 76 | 189 | 2.6 | 7.0 | 0.00 | 0.00 | 0.00 | 47 | 1016.3 |
| 20260502202016 | 75 | 181 | 3.5 | 7.8 | 0.00 | 0.00 | 0.00 | 49 | 1016.3 |
| 20260502201017 | 74 | 179 | 3.5 | 6.1 | 0.00 | 0.00 | 0.00 | 51 | 1016.5 |
| 20260502200017 | 73 | 187 | 4.3 | 8.7 | 0.00 | 0.00 | 0.00 | 52 | 1016.7 |
| 20260502195017 | 73 | 195 | 4.3 | 8.7 | 0.00 | 0.00 | 0.00 | 53 | 1016.7 |
| 20260502194017 | 72 | 198 | 4.3 | 7.8 | 0.00 | 0.00 | 0.00 | 54 | 1016.9 |
| 20260502193017 | 72 | 184 | 5.2 | 10.4 | 0.00 | 0.00 | 0.00 | 55 | 1017.0 |
| 20260502192017 | 72 | 219 | 4.3 | 7.8 | 0.00 | 0.00 | 0.00 | 55 | 1017.0 |
| 20260502191017 | 72 | 245 | 1.7 | 7.0 | 0.00 | 0.00 | 0.00 | 54 | 1017.1 |
| 20260502190018 | 72 | 186 | 4.3 | 8.7 | 0.00 | 0.00 | 0.00 | 54 | 1017.1 |
| 20260502185018 | 71 | 193 | 5.2 | 10.4 | 0.00 | 0.00 | 0.00 | 55 | 1017.1 |
| 20260502184018 | 71 | 182 | 3.5 | 7.8 | 0.00 | 0.00 | 0.00 | 56 | 1017.2 |
| 20260502183018 | 71 | 190 | 2.6 | 7.0 | 0.00 | 0.00 | 0.00 | 57 | 1017.2 |
| 20260502182019 | 70 | 126 | 1.7 | 6.1 | 0.00 | 0.00 | 0.00 | 58 | 1017.3 |